Regional Weather Roundup
Issued by NWS

Home | Current Version | Previous Version | Text Only | Print | Product List | Glossary On
Versions: 1 2 3 4 5 6 7 8 9 10 11 12 13 14 15 16 17 18 19 20 21 22 23 24 25 26 27 28 29 30 31 32 33 34 35 36 37 38 39 40 41 42 43 44 45 46 47 48 49 50
000
ASUS45 KABQ 070710
RWRNM
WEATHER ROUNDUP FOR NEW MEXICO
NATIONAL WEATHER SERVICE ALBUQUERQUE NM
100 AM MDT THU MAY 07 2015

NOTE: "FAIR" MEANS FEW OR NO CLOUDS BELOW 12,000 FEET AGL WITH NO
       SIGNIFICANT WEATHER OR OBSTRUCTIONS TO VISION.

      THIS PRODUCT IS RELEASED AS TWO VERSIONS.  ONE VERSION NEAR
      THE TOP OF THE HOUR CONTAINING PRELIMINARY DATA FROM ALBUQUERQUE
      AND OTHER STATIONS.  A FINAL VERSION WITH ADDITIONAL DATA IS
      ISSUED ABOUT 10 MINUTES AFTER THE HOUR.

NMZ501-503-504-510>518-070800-
NORTHWEST PLATEAU/NORTHCENTRAL MOUNTAINS

CITY           SKY/WX    TMP DP  RH WIND       PRES   REMARKS
FARMINGTON     CLEAR     49  42  77 E7        29.89S
LOS ALAMOS     MOCLDY    49  36  59 CALM      30.00R
SANTA FE       MOCLDY    47  39  74 NE7       29.94R
TAOS           CLOUDY    45  36  70 E5        29.99F
ANGEL FIRE     FAIR      37  35  90 CALM      30.04S

$$
NMZ402-403-502-505>509-070800-
WESTCENTRAL MOUNTAINS/SOUTHWEST MOUNTAINS

CITY           SKY/WX    TMP DP  RH WIND       PRES   REMARKS
GALLUP         CLEAR     41  33  73 E3        29.95R
GRANTS         CLEAR     36  32  85 CALM      29.98S
SILVER CITY      N/A     52  18  25 NW13      29.96R

$$
NMZ407-409-411-412-070800-
SOUTHERN DESERTS

CITY           SKY/WX    TMP DP  RH WIND       PRES   REMARKS
LORDSBURG      FAIR      63  25  23 W14G21    29.89S
DEMING         CLEAR     62  17  17 W10       29.89R
LAS CRUCES     CLEAR     58  15  18 W6        29.90R
HOLLOMAN AFB   PTCLDY    57  30  36 CALM      29.84R
ALAMOGORDO     PTCLDY    57  27  30 NE3       29.86R
T OR C         CLEAR     55  18  23 NW6       29.87R

$$
NMZ519>523-070800-
CENTRAL VALLEYS/CENTRAL HIGHLANDS

CITY           SKY/WX    TMP DP  RH WIND       PRES   REMARKS
ALBUQUERQUE    MOCLDY    59  42  53 NE3       29.91S
DOUBLE EAGLE   CLOUDY    48  42  77 CALM      29.93S
MORIARTY ARPT  FAIR      44  37  76 E5        29.95F
CLINES CORNERS PTCLDY    46  34  62 NW10      29.95S
BELEN          FAIR      49  39  69 CALM      29.91S
SOCORRO        FAIR      57  39  51 NW8       29.88S

$$
NMZ524>526-539-540-070800-
SOUTHCENTRAL MOUNTAINS

CITY           SKY/WX    TMP DP  RH WIND       PRES   REMARKS
RUIDOSO        CLEAR     54  21  28 S3        29.99S

$$
NMZ527>531-070800-
NORTHEAST HIGHLANDS/NORTHEAST PLAINS

CITY           SKY/WX    TMP DP  RH WIND       PRES   REMARKS
LAS VEGAS      PTCLDY    49  31  49 NW7       29.95R
RATON          MOCLDY    50  37  61 W9        29.89S
CLAYTON        PTCLDY    51  42  71 SW5       29.85R

$$
NMZ532>537-070800-
EASTCENTRAL PLAINS

CITY           SKY/WX    TMP DP  RH WIND       PRES   REMARKS
TUCUMCARI      PTCLDY    54  46  74 CALM      29.81R
CANNON AFB     CLEAR     56  46  67 S12       29.85R
CLOVIS AIRPORT CLEAR     59  54  82 SW17      29.85R

$$
NMZ028-029-538-070800-
SOUTHEAST PLAINS

CITY           SKY/WX    TMP DP  RH WIND       PRES   REMARKS
ROSWELL        PTCLDY    59  44  57 S6        29.83R
ARTESIA        PTCLDY    68  63  83 SE16G24   29.83F
CARLSBAD       MOCLDY    68  62  81 S3        29.81S
HOBBS          CLEAR     64  64 100 S13       29.85S


$$


USA.gov is the U.S. government's official web portal to all federal, state and local government web resources and services.